Satellite: DTUSAT-2 Catalog number: 40030 Epoch time: 15043 50873571 Element set: 999 Inclination: 097 9612 deg RA of node: 303 3923 deg Eccentricity: 0 0011526 Arg of perigee: 222 5949 deg Mean anomaly: 137 4355 deg Mean motion: 14 86145675 rev/day Decay rate: 4 002e-05 rev/day^2 Epoch rev: 3526 Checksum: 296

Satellite: ANTELSAT Catalog number: 40034 Epoch time: 15043 41667402 Element set: 999 Inclination: 097 9585 deg RA of node: 298 1390 deg Eccentricity: 0 0060646 Arg of perigee: 158 3537 deg Mean anomaly: 202 0234 deg Mean motion: 14 72235445 rev/day Decay rate: 2 720e-05 rev/day^2 Epoch rev: 3493 Checksum: 298

/EX SB KEPS @ AMSAT $ORB15043 W Orbital Elements 15043 WEATHER

HR AMSAT ORBITAL ELEMENTS FOR WEATHER SATELLITES FROM WA5QGD FORT WORTH,TX February 12, 2015 BID: ORB15043 W TO ALL RADIO AMATEURS BT

Satellite: MET-2/21 Catalog number: 22782 Epoch time: 15043 21392456 Element set: 999 Inclination: 082 5530 deg RA of node: 342 8405 deg Eccentricity: 0 0021199 Arg of perigee: 313 9202 deg Mean anomaly: 155 6362 deg Mean motion: 13 83761949 rev/day Decay rate: 6 5e-07 rev/day^2 Epoch rev: 8331 Checksum: 305

Satellite: OKEAN-4 Catalog number: 23317 Epoch time: 15043 24814279 Element set: 999 Inclination: 082 5373 deg RA of node: 202 7400 deg Eccentricity: 0 0020628 Arg of perigee: 027 6257 deg Mean anomaly: 152 4590 deg Mean motion: 14 86311139 rev/day Decay rate: 2 233e-05 rev/day^2 Epoch rev: 9875 Checksum: 298

Satellite: NOAA-14 Catalog number: 23455 Epoch time: 15043 53004890 Element set: 999 Inclination: 098 7595 deg RA of node: 127 5138 deg Eccentricity: 0 0010433 Arg of perigee: 078 8090 deg Mean anomaly: 038 1958 deg Mean motion: 14 14022083 rev/day Decay rate: 4 0e-07 rev/day^2 Epoch rev: 3791 Checksum: 300

Satellite: NOAA-15 Catalog number: 25338 Epoch time: 15043 59848381 Element set: 999 Inclination: 098 7682 deg RA of node: 042 1876 deg Eccentricity: 0 0011125 Arg of perigee: 165 2837 deg Mean anomaly: 304 2182 deg Mean motion: 14 25564831 rev/day Decay rate: 1 63e-06 rev/day^2 Epoch rev: 87109 Checksum: 327

Satellite: RESURS Catalog number: 25394 Epoch time: 15042 96434850 Element set: 999 Inclination: 098 4494 deg RA of node: 002 6743 deg Eccentricity: 0 0000235 Arg of perigee: 280 9521 deg Mean anomaly: 119 2268 deg Mean motion: 14 24441541 rev/day Decay rate: 3 4e-07 rev/day^2 Epoch rev: 86245 Checksum: 299

Satellite: FENGYUN1 Catalog number: 25730 Epoch time: 15043 15521233 Element set: 999 Inclination: 098 9336 deg RA of node: 008 1627 deg Eccentricity: 0 0019540 Arg of perigee: 143 9644 deg Mean anomaly: 343 6792 deg Mean motion: 14 12992413 rev/day Decay rate: 1 173e-05 rev/day^2 Epoch rev: 81139 Checksum: 304

Satellite: OKEAN-0 Catalog number: 25860 Epoch time: 15043 03092645 Element set: 999 Inclination: 098 0784 deg RA of node: 011 0110 deg Eccentricity: 0 0001493 Arg of perigee: 083 6049 deg Mean anomaly: 318 7240 deg Mean motion: 14 75807442 rev/day Decay rate: 9 30e-06 rev/day^2 Epoch rev: 83752 Checksum: 291

Satellite: NOAA-16 Catalog number: 26536 Epoch time: 15043 54646379 Element set: 999 Inclination: 098 9575 deg RA of node: 109 5598 deg Eccentricity: 0 0010160 Arg of perigee: 220 0075 deg Mean anomaly: 140 0349 deg Mean motion: 14 13076411 rev/day Decay rate: -4 1e-07 rev/day^2 Epoch rev: 74205 Checksum: 301

Satellite: NOAA-17 Catalog number: 27453 Epoch time: 15043 57544760 Element set: 999 Inclination: 098 3307 deg RA of node: 035 8095 deg Eccentricity: 0 0011884 Arg of perigee: 183 0274 deg Mean anomaly: 177 0837 deg Mean motion: 14 24852364 rev/day Decay rate: 7 5e-07 rev/day^2 Epoch rev: 65691 Checksum: 336

Satellite: NOAA-18 Catalog number: 28654 Epoch time: 15043 59706685 Element set: 999 Inclination: 099 1755 deg RA of node: 033 2625 deg Eccentricity: 0 0013435 Arg of perigee: 312 3314 deg Mean anomaly: 154 4451 deg Mean motion: 14 12148075 rev/day Decay rate: 2 50e-06 rev/day^2 Epoch rev: 50149 Checksum: 303

Satellite: NOAA-19 Catalog number: 33591 Epoch time: 15043 53970792 Element set: 999 Inclination: 098 9763 deg RA of node: 353 2216 deg Eccentricity: 0 0014536 Arg of perigee: 157 9967 deg Mean anomaly: 331 3486 deg Mean motion: 14 11873647 rev/day Decay rate: 1 19e-06 rev/day^2 Epoch rev: 30990 Checksum: 352

/EX SB KEPS @ AMSAT $ORB15043 M Orbital Elements 15043 MISC

HR AMSAT ORBITAL ELEMENTS FOR MANNED AND MISCELLANEOUS SATELLITES FROM WA5QGD FORT WORTH,TX February 12, 2015 BID: ORB15043 M TO ALL RADIO AMATEURS BT

Satellite: HUBBLE Catalog number: 20580 Epoch time: 15043 03098836 Element set: 999 Inclination: 028 4693 deg RA of node: 259 0787 deg Eccentricity: 0 0003107 Arg of perigee: 340 0763 deg Mean anomaly: 154 3233 deg Mean motion: 15 06805033 rev/day Decay rate: 3 541e-05 rev/day^2 Epoch rev: 16091 Checksum: 286

Satellite: ISS Catalog number: 25544 Epoch time: 15043 32811632 Element set: 999 Inclination: 051 6483 deg RA of node: 347 5817 deg Eccentricity: 0 0005937 Arg of perigee: 359 5524 deg Mean anomaly: 149 6677 deg Mean motion: 15 54676862 rev/day Decay rate: 2 4333e-04 rev/day^2 Epoch rev: 92860 Checksum: 342

Satellite: CO-58 Catalog number: 28895 Epoch time: 15043 13958421 Element set: 999 Inclination: 097 8222 deg RA of node: 237 4503 deg Eccentricity: 0 0016417 Arg of perigee: 336 2076 deg Mean anomaly: 023 8365 deg Mean motion: 14 62497289 rev/day Decay rate: 1 049e-05 rev/day^2 Epoch rev: 49531 Checksum: 342

Satellite: FALCON Catalog number: 30776 Epoch time: 15042 18843588 Element set: 999 Inclination: 035 4282 deg RA of node: 069 3106 deg Eccentricity: 0 0003900 Arg of perigee: 234 7356 deg Mean anomaly: 184 5207 deg Mean motion: 15 21406363 rev/day Decay rate: 1 5119e-04 rev/day^2 Epoch rev: 43708 Checksum: 302

Satellite: MAST Catalog number: 31126 Epoch time: 15042 16382269 Element set: 999 Inclination: 097 9451 deg RA of node: 016 0519 deg Eccentricity: 0 0090470 Arg of perigee: 329 7278 deg Mean anomaly: 091 5225 deg Mean motion: 14 55814372 rev/day Decay rate: 1 832e-05 rev/day^2 Epoch rev: 41515 Checksum: 306

Satellite: CAPE1 Catalog number: 31130 Epoch time: 15042 43347047 Element set: 999 Inclination: 097 9666 deg RA of node: 013 2973 deg Eccentricity: 0 0097428 Arg of perigee: 348 2284 deg Mean anomaly: 011 6637 deg Mean motion: 14 55165715 rev/day Decay rate: 2 408e-05 rev/day^2 Epoch rev: 41459 Checksum: 318

Satellite: COMPASS Catalog number: 32787 Epoch time: 15043 18880511 Element set: 999 Inclination: 097 6693 deg RA of node: 094 6647 deg Eccentricity: 0 0014683 Arg of perigee: 107 4362 deg Mean anomaly: 252 8463 deg Mean motion: 14 89795113 rev/day Decay rate: 4 166e-05 rev/day^2 Epoch rev: 36789 Checksum: 356

Satellite: AAUSAT2 Catalog number: 32788 Epoch time: 15043 13175735 Element set: 999 Inclination: 097 6702 deg RA of node: 095 9196 deg Eccentricity: 0 0014182 Arg of perigee: 105 3344 deg Mean anomaly: 254 9443 deg Mean motion: 14 90726960 rev/day Decay rate: 4 879e-05 rev/day^2 Epoch rev: 36796 Checksum: 350

Satellite: DO-64 Catalog number: 32789 Epoch time: 15043 14337057 Element set: 999 Inclination: 097 6912 deg RA of node: 105 0772 deg Eccentricity: 0 0012529 Arg of perigee: 086 2064 deg Mean anomaly: 326 1732 deg Mean motion: 14 97634066 rev/day Decay rate: 9 594e-05 rev/day^2 Epoch rev: 36835 Checksum: 341

Satellite: CO-66 Catalog number: 32791 Epoch time: 15043 18583950 Element set: 999 Inclination: 097 6689 deg RA of node: 092 8653 deg Eccentricity: 0 0015484 Arg of perigee: 112 1579 deg Mean anomaly: 248 1283 deg Mean motion: 14 88055881 rev/day Decay rate: 3 335e-05 rev/day^2 Epoch rev: 36772 Checksum: 363

Satellite: RS-30 Catalog number: 32953 Epoch time: 15043 48254944 Element set: 999 Inclination: 082 5013 deg RA of node: 051 7924 deg Eccentricity: 0 0018652 Arg of perigee: 355 5554 deg Mean anomaly: 004 5356 deg Mean motion: 12 43056503 rev/day Decay rate: 1 0e-07 rev/day^2 Epoch rev: 30511 Checksum: 280

Satellite: METEOR-M Catalog number: 35865 Epoch time: 15043 52552201 Element set: 999 Inclination: 098 5169 deg RA of node: 088 2341 deg Eccentricity: 0 0003022 Arg of perigee: 111 3501 deg Mean anomaly: 248 7999 deg Mean motion: 14 21990075 rev/day Decay rate: 1 66e-06 rev/day^2 Epoch rev: 28049 Checksum: 304

Satellite: RS-38 Catalog number: 35869 Epoch time: 15043 51225689 Element set: 999 Inclination: 098 5105 deg RA of node: 087 9137 deg Eccentricity: 0 0005180 Arg of perigee: 110 1710 deg Mean anomaly: 250 0053 deg Mean motion: 14 22270630 rev/day Decay rate: 9 9e-07 rev/day^2 Epoch rev: 28053 Checksum: 297

Satellite: JUGNU Catalog number: 37839 Epoch time: 15042 60159462 Element set: 999 Inclination: 019 9603 deg RA of node: 243 8060 deg Eccentricity: 0 0018970 Arg of perigee: 102 2372 deg Mean anomaly: 291 8919 deg Mean motion: 14 12419967 rev/day Decay rate: 4 71e-06 rev/day^2 Epoch rev: 17244 Checksum: 317

Satellite: SRMSAT Catalog number: 37841 Epoch time: 15043 02048486 Element set: 999 Inclination: 019 9711 deg RA of node: 265 4241 deg Eccentricity: 0 0011857 Arg of perigee: 038 0266 deg Mean anomaly: 081 4753 deg Mean motion: 14 10440826 rev/day Decay rate: 4 10e-06 rev/day^2 Epoch rev: 17225 Checksum: 283

Satellite: RAX-2 Catalog number: 37853 Epoch time: 15043 01394035 Element set: 999 Inclination: 101 7073 deg RA of node: 192 7773 deg Eccentricity: 0 0201814 Arg of perigee: 080 9028 deg Mean anomaly: 033 3270 deg Mean motion: 14 94069691 rev/day Decay rate: 9 202e-05 rev/day^2 Epoch rev: 17840 Checksum: 300

